Date String (YYYY-MM-DD hh:mm:ss) UTC,Instrument flags,Ambient pressure (hPa),Sample flow (lpm),Bypass flow (lpm),Sample temperature (°C),Ambient temperature (°C),ASC tube jacket temperature (°C),LED temperature (°C),Box temperature (°C),Sample RH (%),Span deviation,Mass concentration (μg/m³),Mass concentration (μg/m³),Mass concentration (μg/m³)
DateTimeUTC,F1_M11,P_M11,Q1_M11,Q2_M11,T1_M11,T2_M11,T3_M11,T4_M11,T5_M11,U1_M11,ZSPAN_M11,X2_M11,X0_M11,X1_M11
2022-12-06 15:00:00,,0820.0,5.00,0.00,21.9,20.8,00.0,30.8,23.7,12.5,0000.0,0001.09,0003.53,0000.68
2022-12-06 15:01:00,,0820.0,4.99,0.00,21.9,20.7,00.0,30.8,23.8,12.3,0000.0,0001.08,0003.50,0000.67
2022-12-06 15:02:00,,0820.0,5.00,0.00,21.9,20.7,00.0,30.8,23.8,12.2,0000.0,0001.08,0003.50,0000.66
2022-12-06 15:03:00,,0820.0,5.00,0.00,22.0,20.8,00.0,30.8,23.8,12.6,0000.0,0001.06,0003.56,0000.65
2022-12-06 15:04:00,,0819.9,5.00,0.00,22.0,20.8,00.0,30.9,23.8,12.0,0000.0,0001.01,0002.95,0000.63
2022-12-06 15:05:00,,0819.9,5.00,0.00,22.0,20.8,00.0,30.9,23.8,11.7,0000.0,0000.95,0002.50,0000.62
2022-12-06 15:06:00,,0819.9,5.00,0.00,22.0,20.8,00.0,30.9,23.8,11.6,0000.0,0000.90,0002.22,0000.59
2022-12-06 15:07:00,,0820.0,5.00,0.00,22.0,20.8,00.0,30.9,23.8,11.6,0000.0,0000.87,0001.74,0000.57
2022-12-06 15:08:00,,0819.9,5.00,0.00,22.0,20.9,00.0,30.9,23.8,11.7,0000.0,0000.87,0001.84,0000.56
2022-12-06 15:09:00,,0819.9,5.00,0.00,22.0,20.9,00.0,30.9,23.8,12.0,0000.0,0000.86,0001.88,0000.54
2022-12-06 15:10:00,,0819.9,5.00,0.00,22.0,20.9,00.0,30.9,23.8,12.6,0000.0,0000.88,0001.90,0000.53
2022-12-06 15:11:00,,0819.9,4.99,0.00,22.0,20.9,00.0,30.9,23.9,13.1,0000.0,0000.90,0001.94,0000.55
2022-12-06 15:12:00,,0819.9,5.00,0.00,22.0,20.9,00.0,30.9,23.9,12.5,0000.0,0000.95,0002.09,0000.57
2022-12-06 15:13:00,,0819.9,5.00,0.00,22.0,20.9,00.0,30.9,23.9,12.4,0000.0,0000.95,0002.05,0000.58
2022-12-06 15:14:00,,0820.0,5.01,0.00,22.0,20.9,00.0,30.9,23.9,12.1,0000.0,0000.95,0002.13,0000.60
2022-12-06 15:15:00,,0820.0,5.00,0.00,22.0,20.9,00.0,30.9,23.9,11.8,0000.0,0000.96,0002.09,0000.61
2022-12-06 15:16:00,,0820.0,5.00,0.00,22.0,20.9,00.0,30.9,23.8,13.3,0000.0,0001.02,0002.18,0000.64
2022-12-06 15:17:00,,0819.9,5.00,0.00,22.0,20.9,00.0,30.9,23.8,13.4,0000.0,0001.10,0002.33,0000.68
2022-12-06 15:18:00,,0819.9,5.00,0.00,22.0,20.9,00.0,30.9,23.8,11.9,0000.0,0001.10,0002.33,0000.70
2022-12-06 15:19:00,,0820.0,5.00,0.00,22.1,20.9,00.0,30.9,23.8,11.8,0000.0,0001.11,0002.97,0000.71
2022-12-06 15:20:00,,0819.9,5.00,0.00,22.1,20.9,00.0,30.9,23.9,11.5,0000.0,0001.13,0003.02,0000.71
2022-12-06 15:21:00,,0819.9,5.00,0.00,22.1,21.0,00.0,30.9,23.9,13.0,0000.0,0001.15,0003.08,0000.73
2022-12-06 15:22:00,,0819.9,5.00,0.00,22.1,21.0,00.0,31.0,23.9,13.1,0000.0,0001.16,0003.18,0000.73
2022-12-06 15:23:00,,0819.9,5.00,0.00,22.1,21.0,00.0,31.0,24.0,12.0,0000.0,0001.12,0003.06,0000.72
2022-12-06 15:24:00,,0819.9,5.00,0.00,22.1,21.0,00.0,31.0,24.0,11.4,0000.0,0001.10,0003.01,0000.70
2022-12-06 15:25:00,,0819.9,5.00,0.00,22.2,21.0,00.0,31.0,24.0,11.6,0000.0,0001.07,0002.82,0000.68
2022-12-06 15:26:00,,0819.9,5.00,0.00,22.2,21.1,00.0,31.0,23.9,11.7,0000.0,0001.04,0002.72,0000.67
2022-12-06 15:27:00,,0820.0,5.00,0.00,22.2,21.1,00.0,31.0,24.0,12.5,0000.0,0001.00,0002.66,0000.65
2022-12-06 15:28:00,,0819.9,5.00,0.00,22.2,21.1,00.0,31.0,24.0,12.3,0000.0,0000.96,0002.68,0000.62
2022-12-06 15:29:00,,0819.9,5.00,0.00,22.2,21.1,00.0,31.0,24.0,11.9,0000.0,0000.97,0003.32,0000.61
2022-12-06 15:30:00,,0819.9,5.00,0.00,22.2,21.1,00.0,31.0,24.0,11.9,0000.0,0000.98,0002.77,0000.61
2022-12-06 15:31:00,,0820.0,5.00,0.00,22.2,21.1,00.0,31.1,24.0,12.2,0000.0,0000.99,0002.74,0000.61
2022-12-06 15:32:00,,0820.1,5.00,0.00,22.3,21.2,00.0,31.1,24.1,12.2,0000.0,0000.96,0002.68,0000.61
2022-12-06 15:33:00,,0820.2,5.00,0.00,22.3,21.2,00.0,31.1,24.1,12.0,0000.0,0000.92,0002.53,0000.59
2022-12-06 15:34:00,,0820.2,5.00,0.00,22.3,21.2,00.0,31.1,24.1,12.0,0000.0,0000.89,0002.44,0000.58
2022-12-06 15:35:00,,0820.1,5.00,0.00,22.3,21.2,00.0,31.1,24.1,12.2,0000.0,0000.91,0003.52,0000.59
2022-12-06 15:36:00,,0820.1,5.00,0.00,22.3,21.2,00.0,31.1,24.2,11.9,0000.0,0000.89,0003.56,0000.59
2022-12-06 15:37:00,,0820.1,5.00,0.00,22.3,21.2,00.0,31.1,24.1,11.6,0000.0,0000.90,0003.59,0000.59
2022-12-06 15:38:00,,0820.0,5.00,0.00,22.3,21.2,00.0,31.1,24.1,11.0,0000.0,0000.88,0003.58,0000.57
2022-12-06 15:39:00,,0819.9,5.00,0.00,22.3,21.2,00.0,31.2,24.0,10.7,0000.0,0000.85,0003.47,0000.56
2022-12-06 15:40:00,,0819.9,5.00,0.00,22.3,21.1,00.0,31.2,24.0,11.0,0000.0,0000.83,0002.81,0000.54
2022-12-06 15:41:00,,0820.0,5.00,0.00,22.3,21.1,00.0,31.2,24.0,11.1,0000.0,0000.81,0002.75,0000.53
2022-12-06 15:42:00,,0819.9,5.00,0.00,22.3,21.1,00.0,31.2,24.0,11.0,0000.0,0000.80,0003.13,0000.52
2022-12-06 15:43:00,,0819.9,4.99,0.00,22.3,21.0,00.0,31.2,24.0,10.8,0000.0,0000.77,0003.28,0000.50
2022-12-06 15:44:00,,0819.9,5.00,0.00,22.3,21.0,00.0,31.2,24.0,10.7,0000.0,0000.75,0003.20,0000.48
2022-12-06 15:45:00,,0819.9,5.00,0.00,22.3,20.9,00.0,31.2,24.0,10.9,0000.0,0000.76,0003.31,0000.45
2022-12-06 15:46:00,,0820.0,5.00,0.00,22.3,20.9,00.0,31.2,23.9,10.7,0000.0,0000.77,0002.38,0000.43
2022-12-06 15:47:00,,0820.0,5.01,0.00,22.2,20.8,00.0,31.2,23.9,10.9,0000.0,0000.76,0002.20,0000.42
2022-12-06 15:48:00,,0820.2,5.01,0.00,22.2,20.8,00.0,31.2,23.9,11.0,0000.0,0000.75,0002.17,0000.40
2022-12-06 15:49:00,,0820.2,5.00,0.00,22.2,20.8,00.0,31.2,23.9,11.2,0000.0,0000.78,0002.27,0000.41
2022-12-06 15:50:00,,0820.1,5.00,0.00,22.2,20.7,00.0,31.2,23.9,11.0,0000.0,0000.76,0002.32,0000.40
2022-12-06 15:51:00,,0820.1,5.00,0.00,22.2,20.7,00.0,31.2,23.8,10.9,0000.0,0000.76,0002.32,0000.40
2022-12-06 15:52:00,,0820.2,4.99,0.00,22.1,20.7,00.0,31.1,23.8,11.2,0000.0,0000.74,0002.27,0000.39
2022-12-06 15:53:00,,0820.2,5.00,0.00,22.1,20.7,00.0,31.1,23.9,11.4,0000.0,0000.72,0001.90,0000.39
2022-12-06 15:54:00,,0820.2,5.00,0.00,22.1,20.7,00.0,31.1,23.9,11.6,0000.0,0000.73,0001.54,0000.40
2022-12-06 15:55:00,,0820.2,5.00,0.00,22.1,20.8,00.0,31.1,23.9,11.3,0000.0,0000.71,0001.50,0000.40
2022-12-06 15:56:00,,0820.2,5.00,0.00,22.1,20.8,00.0,31.1,23.9,10.9,0000.0,0000.67,0001.41,0000.41
2022-12-06 15:57:00,,0820.2,5.00,0.00,22.1,20.8,00.0,31.1,23.9,11.3,0000.0,0000.64,0001.35,0000.41
2022-12-06 15:58:00,,0820.1,5.01,0.00,22.2,20.9,00.0,31.1,24.0,11.6,0000.0,0000.68,0001.46,0000.41
2022-12-06 15:59:00,,0820.2,5.00,0.00,22.2,20.9,00.0,31.1,24.0,11.6,0000.0,0000.69,0001.48,0000.42
